• In United Kingdom
  • List of Countries
  • For 7 days
  • Water Temperature
  • Satellite Maps
  • Weather Map
  • Weather Widgets
  • user-avatar
    Login

    Hourly Weather Kapan

    Today, 21 September, Friday

    Time Temperature Precipitation Wind Pressure Humidity
    00:00 +18°C° 0 mm 1 mps 687 mmHg 85%
    01:00 +16°C° 0 mm 1 mps 687 mmHg 85%
    02:00 +16°C° 0 mm 1 mps 687 mmHg 85%
    03:00 +16°C° 0 mm 1 mps 687 mmHg 85%
    04:00 +16°C° 0 mm 1 mps 687 mmHg 85%
    05:00 +16°C° 0 mm 1 mps 687 mmHg 86%
    06:00 +16°C° 0 mm 1 mps 687 mmHg 86%
    07:00 +18°C° 0 mm 1 mps 687 mmHg 77%
    08:00 +20°C° 0 mm 1 mps 687 mmHg 68%
    09:00 +22°C° 0 mm 1 mps 688 mmHg 61%
    10:00 +23°C° 0 mm 2 mps 688 mmHg 56%
    11:00 +25°C° 0 mm 2 mps 687 mmHg 51%
    12:00 +26°C° 0 mm 2 mps 687 mmHg 46%
    13:00 +26°C° 0.2 mm 3 mps 687 mmHg 45%
    14:00 +26°C° 0.2 mm 3 mps 687 mmHg 45%
    15:00 +26°C° 0.2 mm 3 mps 686 mmHg 44%
    16:00 +25°C° 0.2 mm 2 mps 686 mmHg 51%
    17:00 +23°C° 0.2 mm 2 mps 686 mmHg 57%
    18:00 +21°C° 0.2 mm 2 mps 686 mmHg 63%
    19:00 +20°C° 0.1 mm 2 mps 686 mmHg 67%
    20:00 +20°C° 0.1 mm 1 mps 686 mmHg 72%
    21:00 +19°C° 0.1 mm 1 mps 686 mmHg 76%
    22:00 +19°C° 0 mm 1 mps 686 mmHg 77%
    23:00 +19°C° 0 mm 1 mps 686 mmHg 78%

    Tomorrow, 22 September, Saturday

    Time Temperature Precipitation Wind Pressure Humidity
    00:00 +19°C° 0 mm 1 mps 687 mmHg 79%
    01:00 +18°C° 0 mm 1 mps 687 mmHg 79%
    02:00 +18°C° 0 mm 1 mps 687 mmHg 80%
    03:00 +18°C° 0 mm 1 mps 687 mmHg 80%
    04:00 +18°C° 0 mm 1 mps 687 mmHg 80%
    05:00 +18°C° 0 mm 1 mps 687 mmHg 80%
    06:00 +18°C° 0 mm 1 mps 687 mmHg 80%
    07:00 +19°C° 0 mm 1 mps 687 mmHg 72%
    08:00 +20°C° 0 mm 2 mps 688 mmHg 64%
    09:00 +23°C° 0 mm 2 mps 688 mmHg 56%
    10:00 +24°C° 0.1 mm 2 mps 688 mmHg 52%
    11:00 +25°C° 0.1 mm 3 mps 688 mmHg 48%
    12:00 +26°C° 0.1 mm 3 mps 688 mmHg 43%
    13:00 +27°C° 0.1 mm 3 mps 687 mmHg 44%
    14:00 +27°C° 0.1 mm 3 mps 687 mmHg 44%
    15:00 +27°C° 0.1 mm 4 mps 687 mmHg 45%
    16:00 +25°C° 0.2 mm 3 mps 686 mmHg 52%
    17:00 +24°C° 0.2 mm 3 mps 686 mmHg 60%
    18:00 +21°C° 0.2 mm 3 mps 686 mmHg 68%
    19:00 +21°C° 0.2 mm 2 mps 686 mmHg 72%
    20:00 +20°C° 0.2 mm 2 mps 686 mmHg 77%
    21:00 +20°C° 0.2 mm 2 mps 686 mmHg 81%
    22:00 +19°C° 0 mm 2 mps 686 mmHg 82%
    23:00 +20°C° 0 mm 1 mps 686 mmHg 83%

    Day after tomorrow, 23 September, Sunday

    Time Temperature Precipitation Wind Pressure Humidity
    00:00 +19°C° 0 mm 1 mps 686 mmHg 85%
    01:00 +19°C° 0 mm 1 mps 686 mmHg 85%
    02:00 +19°C° 0 mm 1 mps 686 mmHg 86%
    03:00 +18°C° 0 mm 1 mps 685 mmHg 87%
    04:00 +18°C° 0 mm 1 mps 685 mmHg 86%
    05:00 +18°C° 0 mm 1 mps 685 mmHg 86%
    06:00 +18°C° 0 mm 1 mps 685 mmHg 85%
    07:00 +19°C° 0 mm 1 mps 686 mmHg 77%
    08:00 +21°C° 0 mm 1 mps 686 mmHg 69%
    09:00 +21°C° 0 mm 2 mps 686 mmHg 61%
    10:00 +24°C° 0 mm 2 mps 686 mmHg 56%
    11:00 +25°C° 0 mm 2 mps 686 mmHg 51%
    12:00 +26°C° 0 mm 2 mps 686 mmHg 46%
    13:00 +26°C° 0 mm 2 mps 686 mmHg 45%
    14:00 +27°C° 0 mm 3 mps 685 mmHg 43%
    15:00 +27°C° 0 mm 3 mps 685 mmHg 42%
    16:00 +26°C° 0.2 mm 2 mps 684 mmHg 49%
    17:00 +24°C° 0.2 mm 2 mps 684 mmHg 55%
    18:00 +23°C° 0.2 mm 2 mps 684 mmHg 62%
    19:00 +22°C° 0.1 mm 1 mps 684 mmHg 66%
    20:00 +21°C° 0.1 mm 1 mps 684 mmHg 70%
    21:00 +18°C° 0.1 mm 0 mps 685 mmHg 75%
    22:00 +20°C° 0.1 mm 1 mps 685 mmHg 75%
    23:00 +20°C° 0.1 mm 1 mps 685 mmHg 75%

    24 September, Monday

    Time Temperature Precipitation Wind Pressure Humidity
    00:00 +19°C° 0.1 mm 1 mps 684 mmHg 74%
    01:00 +17°C° 0.2 mm 0 mps 684 mmHg 75%
    02:00 +17°C° 0.2 mm 0 mps 684 mmHg 75%
    03:00 +16°C° 0.2 mm 0 mps 684 mmHg 75%
    04:00 +16°C° 0 mm 0 mps 685 mmHg 75%
    05:00 +16°C° 0 mm 0 mps 685 mmHg 75%
    06:00 +15°C° 0 mm 0 mps 685 mmHg 76%
    07:00 +19°C° 0 mm 1 mps 686 mmHg 66%
    08:00 +21°C° 0 mm 1 mps 686 mmHg 57%
    09:00 +23°C° 0 mm 2 mps 687 mmHg 47%
    10:00 +24°C° 0 mm 2 mps 687 mmHg 42%
    11:00 +26°C° 0 mm 2 mps 687 mmHg 38%
    12:00 +27°C° 0 mm 3 mps 687 mmHg 33%
    13:00 +27°C° 0 mm 3 mps 686 mmHg 32%
    14:00 +27°C° 0 mm 3 mps 686 mmHg 32%
    15:00 +27°C° 0 mm 3 mps 686 mmHg 31%
    16:00 +26°C° 0 mm 3 mps 686 mmHg 37%
    17:00 +24°C° 0 mm 3 mps 686 mmHg 42%
    18:00 +23°C° 0 mm 2 mps 686 mmHg 47%
    19:00 +21°C° 0 mm 2 mps 686 mmHg 52%
    20:00 +20°C° 0 mm 2 mps 687 mmHg 57%
    21:00 +20°C° 0 mm 1 mps 687 mmHg 62%
    22:00 +19°C° 0 mm 1 mps 687 mmHg 62%
    23:00 +19°C° 0 mm 1 mps 687 mmHg 63%

    25 September, Tuesday

    Time Temperature Precipitation Wind Pressure Humidity
    00:00 +19°C° 0 mm 1 mps 687 mmHg 63%
    01:00 +19°C° 0 mm 1 mps 686 mmHg 62%
    02:00 +19°C° 0 mm 1 mps 686 mmHg 60%
    03:00 +18°C° 0 mm 1 mps 686 mmHg 59%
    04:00 +18°C° 0 mm 1 mps 686 mmHg 59%
    05:00 +18°C° 0 mm 1 mps 686 mmHg 58%
    06:00 +18°C° 0 mm 1 mps 686 mmHg 58%
    07:00 +20°C° 0 mm 1 mps 686 mmHg 51%
    08:00 +22°C° 0 mm 1 mps 686 mmHg 44%
    09:00 +25°C° 0 mm 1 mps 687 mmHg 37%
    10:00 +26°C° 0 mm 2 mps 687 mmHg 34%
    11:00 +27°C° 0 mm 2 mps 686 mmHg 31%
    12:00 +29°C° 0 mm 2 mps 686 mmHg 28%
    13:00 +29°C° 0 mm 3 mps 685 mmHg 28%
    14:00 +29°C° 0 mm 3 mps 685 mmHg 28%
    15:00 +30°C° 0 mm 3 mps 684 mmHg 28%
    16:00 +28°C° 0 mm 2 mps 684 mmHg 34%
    17:00 +26°C° 0 mm 2 mps 683 mmHg 41%
    18:00 +24°C° 0 mm 1 mps 683 mmHg 48%
    19:00 +23°C° 0 mm 1 mps 683 mmHg 50%
    20:00 +22°C° 0 mm 1 mps 683 mmHg 52%
    21:00 +20°C° 0 mm 0 mps 683 mmHg 54%
    22:00 +20°C° 0 mm 0 mps 683 mmHg 53%
    23:00 +21°C° 0 mm 1 mps 683 mmHg 51%

    26 September, Wednesday

    Time Temperature Precipitation Wind Pressure Humidity
    00:00 +21°C° 0 mm 1 mps 683 mmHg 50%
    01:00 +21°C° 0 mm 1 mps 683 mmHg 50%
    02:00 +21°C° 0 mm 1 mps 683 mmHg 49%
    03:00 +20°C° 0 mm 1 mps 683 mmHg 49%
    04:00 +20°C° 0 mm 1 mps 683 mmHg 50%
    05:00 +20°C° 0 mm 1 mps 683 mmHg 52%
    06:00 +19°C° 0 mm 1 mps 683 mmHg 53%
    07:00 +21°C° 0 mm 1 mps 684 mmHg 50%
    08:00 +23°C° 0 mm 2 mps 685 mmHg 47%
    09:00 +25°C° 0 mm 2 mps 685 mmHg 43%
    10:00 +26°C° 0 mm 2 mps 685 mmHg 41%
    11:00 +27°C° 0 mm 3 mps 685 mmHg 39%
    12:00 +28°C° 0 mm 3 mps 685 mmHg 37%
    13:00 +28°C° 0.1 mm 3 mps 684 mmHg 37%
    14:00 +28°C° 0.1 mm 3 mps 684 mmHg 38%
    15:00 +28°C° 0.1 mm 3 mps 684 mmHg 38%
    16:00 +26°C° 0.1 mm 3 mps 684 mmHg 46%
    17:00 +24°C° 0.1 mm 3 mps 684 mmHg 54%
    18:00 +22°C° 0.1 mm 3 mps 684 mmHg 61%
    19:00 +21°C° 0 mm 2 mps 684 mmHg 67%
    20:00 +20°C° 0 mm 2 mps 684 mmHg 73%
    21:00 +19°C° 0 mm 2 mps 685 mmHg 78%
    22:00 +19°C° 0 mm 2 mps 685 mmHg 80%
    23:00 +19°C° 0 mm 2 mps 685 mmHg 81%
    Show more